CW7410 Weather Reports


Display with metric or nautical units.
time (UTC)temp
F
wind
direction
speed
MPH
gust
MPH
rain 1hr
in
rain 24hr
in
rain mn
in
humidity
%
barometer
mb
20260902201603 81 275 10.0 20.0 0.00 0.00 0.00 33 1012.5
20260902200059 81 226 11.0 20.0 0.00 0.00 0.00 30 1012.8
20260902194602 81 244 9.0 20.0 0.00 0.00 0.00 32 1013.1
20260902193058 81 190 13.0 27.0 0.00 0.00 0.00 31 1013.3
20260902191555 81 219 12.0 23.0 0.00 0.00 0.00 31 1013.5
20260902184558 81 225 10.0 24.0 0.00 0.00 0.00 36 1013.7
20260902183109 80 215 11.0 22.0 0.00 0.00 0.00 34 1013.7
20260902181611 80 219 14.0 26.0 0.00 0.00 0.00 35 1013.8
20260902180055 80 206 12.0 26.0 0.00 0.00 0.00 34 1013.8
20260902174559 79 207 14.0 25.0 0.00 0.00 0.00 34 1013.6
20260902173114 79 155 14.0 24.0 0.00 0.00 0.00 35 1013.8
20260902171601 79 157 10.0 23.0 0.00 0.00 0.00 41 1014.0
20260902170057 78 202 12.0 30.0 0.00 0.00 0.00 37 1014.1
20260902164606 78 203 18.0 31.0 0.00 0.00 0.00 35 1014.1
20260902163105 78 198 13.0 26.0 0.00 0.00 0.00 41 1014.1
20260902161600 77 173 12.0 21.0 0.00 0.00 0.00 42 1014.1
20260902160054 77 163 13.0 24.0 0.00 0.00 0.00 45 1014.0
20260902154557 76 198 14.0 26.0 0.00 0.00 0.00 47 1013.9
20260902153106 75 164 12.0 22.0 0.00 0.00 0.00 47 1013.9
20260902151558 74 197 12.0 23.0 0.00 0.00 0.00 47 1013.9
20260902150058 73 173 11.0 22.0 0.00 0.00 0.00 48 1013.9
20260902144555 72 200 11.0 21.0 0.00 0.00 0.00 50 1013.8
20260902143103 71 174 10.0 25.0 0.00 0.00 0.00 52 1013.7
20260902141557 69 188 11.0 21.0 0.00 0.00 0.00 54 1013.5
20260902140055 67 173 10.0 20.0 0.00 0.00 0.00 57 1013.3
20260902134556 65 195 10.0 20.0 0.00 0.00 0.00 60 1013.3
20260902133103 64 138 8.0 17.0 0.00 0.00 0.00 61 1013.2
20260902131558 62 167 9.0 17.0 0.00 0.00 0.00 63 1013.0
20260902130110 62 138 8.0 13.0 0.00 0.00 0.00 64 1012.9
20260902124556 62 122 7.0 13.0 0.00 0.00 0.00 63 1012.9
20260902123057 62 116 7.0 11.0 0.00 0.00 0.00 62 1012.8
20260902121557 63 155 6.0 12.0 0.00 0.00 0.00 61 1013.0
20260902120058 64 142 7.0 11.0 0.00 0.00 0.00 60 1012.9
20260902114557 64 140 9.0 15.0 0.00 0.00 0.00 59 1012.9
20260902113056 63 123 10.0 14.0 0.00 0.00 0.00 61 1012.9
20260902111602 62 160 4.0 11.0 0.00 0.00 0.00 61 1012.8
20260902110103 63 186 3.0 7.0 0.00 0.00 0.00 60 1012.9
20260902104614 64 138 2.0 10.0 0.00 0.00 0.00 59 1012.9
20260902103107 64 107 7.0 12.0 0.00 0.00 0.00 58 1012.8
20260902101605 65 96 7.0 14.0 0.00 0.00 0.00 57 1013.0
20260902100055 66 155 8.0 14.0 0.00 0.00 0.00 56 1012.9
20260902094556 66 109 11.0 17.0 0.00 0.00 0.00 56 1012.9
20260902093059 66 167 12.0 19.0 0.00 0.00 0.00 57 1013.1
20260902091557 66 144 10.0 17.0 0.00 0.00 0.00 59 1013.0
20260902084559 65 147 8.0 14.0 0.00 0.00 0.00 61 1012.9
20260902083100 64 136 9.0 14.0 0.00 0.00 0.00 64 1012.9
20260902081556 64 127 8.0 13.0 0.00 0.00 0.00 64 1012.9
20260902080058 64 137 6.0 11.0 0.00 0.00 0.00 63 1012.9
20260902074555 65 129 7.0 13.0 0.00 0.00 0.00 63 1012.8
20260902073057 65 106 6.0 12.0 0.00 0.00 0.00 63 1012.7
20260902071558 65 135 6.0 12.0 0.00 0.00 0.00 62 1012.6
20260902070103 66 140 6.0 15.0 0.00 0.00 0.00 61 1012.5
20260902064604 67 155 10.0 17.0 0.00 0.00 0.00 60 1012.5
20260902063104 67 132 10.0 16.0 0.00 0.00 0.00 59 1012.4
20260902061620 67 140 8.0 14.0 0.00 0.00 0.00 59 1012.5
20260902060106 67 159 10.0 15.0 0.00 0.00 0.00 59 1012.5
20260902054559 68 123 9.0 16.0 0.00 0.00 0.00 59 1012.7
20260902053059 67 118 7.0 15.0 0.00 0.00 0.00 59 1012.7
20260902051615 67 101 8.0 13.0 0.00 0.00 0.00 59 1012.7
20260902050058 67 161 7.0 13.0 0.00 0.00 0.00 58 1012.9
20260902044626 68 142 8.0 13.0 0.00 0.00 0.00 58 1012.8
20260902043058 68 143 8.0 12.0 0.00 0.00 0.00 57 1012.9
20260902041605 69 146 7.0 11.0 0.00 0.00 0.00 56 1012.8
20260902040104 69 118 7.0 15.0 0.00 0.00 0.00 56 1012.7
20260902034602 69 121 8.0 12.0 0.00 0.00 0.00 56 1012.6
20260902033059 70 141 7.0 13.0 0.00 0.00 0.00 54 1012.6
20260902031601 70 120 7.0 13.0 0.00 0.00 0.00 54 1012.3
20260902024601 71 121 5.0 10.0 0.00 0.00 0.00 54 1012.0
20260902023057 72 142 5.0 10.0 0.00 0.00 0.00 53 1011.9
20260902021559 73 128 5.0 10.0 0.00 0.00 0.00 53 1012.0
20260902014600 76 146 2.0 5.0 0.00 0.01 0.00 52 1012.2
20260902013104 77 146 3.0 9.0 0.00 0.01 0.00 49 1012.2
20260902011558 77 189 4.0 12.0 0.00 0.01 0.00 48 1012.2
20260902010059 78 149 6.0 14.0 0.00 0.01 0.00 45 1012.3
20260902004602 79 141 9.0 20.0 0.00 0.06 0.00 44 1012.4
20260902003101 79 118 7.0 17.0 0.00 0.06 0.00 44 1012.4
20260902001603 80 135 10.0 17.0 0.00 0.06 0.00 44 1012.6
20260902000058 80 179 10.0 21.0 0.00 0.06 0.00 43 1012.7
20260901234557 80 154 11.0 22.0 0.00 0.07 0.00 42 1012.8
20260901233057 81 159 8.0 23.0 0.00 0.07 0.00 44 1013.0
20260901231612 80 134 12.0 23.0 0.00 0.07 0.00 43 1013.3
20260901230108 79 137 11.0 20.0 0.00 0.07 0.00 46 1013.3
20260901224556 80 135 11.0 22.0 0.00 0.07 0.00 44 1013.5
20260901223058 81 148 10.0 24.0 0.00 0.07 0.00 45 1013.5
20260901221611 80 142 7.0 22.0 0.00 0.07 0.00 46 1014.0
20260901214605 79 134 7.0 16.0 0.00 0.07 0.00 49 1014.4
20260901213102 80 178 10.0 20.0 0.00 0.07 0.00 44 1014.7
20260901211601 80 167 11.0 19.0 0.00 0.07 0.00 43 1014.7
20260901210106 81 177 12.0 20.0 0.00 0.07 0.00 46 1015.0
20260901204555 81 107 11.0 21.0 0.00 0.07 0.00 49 1015.5
20260901203059 79 144 9.0 19.0 0.00 0.07 0.00 50 1015.7